Location: Gombori
(14.9797°N, 2.9419°W)
Time: 01:06:49
(UTC+00:00)

CZ-4 R/B - Pass Details

Date: 06 December 2021
Orbit: 531 x 595 km, 97.8° (Epoch: 22 January)

Event Time Altitude Azimuth Distance (km) Brightness Sun altitude
Rises 19:15:48 0° 166° (SSE) 2,819 5.0 -22.2°
Reaches altitude 10° 19:17:58 10° 164° (SSE) 1,915 4.1 -22.7°
Enters shadow 19:20:55 45° 155° (SSE) 802 2.0 -23.4°
